Regional Weather Roundup
Issued by NWS Northern Indiana

Home | Current Version | Previous Version | Text Only | Print | Product List | Glossary On
Versions: 1 2 3 4 5 6 7 8 9 10 11 12 13 14 15 16 17 18 19 20 21 22 23 24 25 26 27 28 29 30 31 32 33 34 35 36 37 38 39 40 41 42 43 44 45 46 47 48 49 50
000
ASUS43 KIWX 290800
RWRIWX

KIWX WEATHER ROUNDUP
NATIONAL WEATHER SERVICE NORTHERN INDIANA
400 AM EDT SUN MAR 29 2015

NOTE: "FAIR" INDICATES FEW OR NO CLOUDS BELOW 12,000 FEET WITH NO
SIGNIFICANT WEATHER AND/OR OBSTRUCTIONS TO VISIBILITY.

* THESE STATIONS ARE NOT UNDER NWS QUALITY CONTROL. THEY ALSO MAY NOT
  REPORT WEATHER SUCH AS PRECIPITATION OR FOG.

INZ001>027-290900-
NORTHERN INDIANA

CITY           SKY/WX    TMP DP  RH WIND       PRES   REMARKS
SOUTH BEND     CLEAR     21  13  71 CALM      30.27F
GOSHEN         CLEAR     23  14  68 S7        30.27F WCI  15
ANGOLA*        CLEAR     18  16  93 CALM      30.27F
FORT WAYNE     CLEAR     22  15  75 S7        30.31S WCI  13

$$
INZ028>050-290900-
CENTRAL INDIANA

CITY           SKY/WX    TMP DP  RH WIND       PRES   REMARKS
LAFAYETTE      CLEAR     27  16  63 SE6       30.29F WCI  20
KOKOMO*          N/A     27  18  69 S10       30.30F WCI  17
MUNCIE*        CLEAR     25  14  63 S7        30.31F WCI  17
INDIANAPOLIS   CLEAR     24  15  68 SE8       30.29F WCI  15

$$
MIZ043>046-050>051-056>058-064>065-071>073-077>080-290900-
SOUTHWEST LOWER MICHIGAN

CITY           SKY/WX    TMP DP  RH WIND       PRES   REMARKS
BATTLE CREEK   CLEAR     21  12  68 S7        30.24F WCI  12
BENTON HARBOR  CLEAR     20  13  74 SE7       30.25F WCI  11
COLDWATER*     CLEAR     20  14  78 CALM      30.26F
HILLSDALE*     CLEAR     20  13  73 S3        30.25F
HOLLAND        CLEAR     21  10  62 S8        30.23F WCI  11
GRAND RAPIDS   CLEAR     21   9  59 S9        30.23F WCI  11
KALAMAZOO      FAIR      24  14  65 S7        30.25F WCI  16
STURGIS*       CLEAR     19  14  79 CALM      30.26S
THREE RIVERS*  FAIR      20  15  80 S5        30.26F WCI  14

$$
OHZ001>008-015>018-024>025-290900-
NORTHWEST OHIO

CITY           SKY/WX    TMP DP  RH WIND       PRES   REMARKS
DEFIANCE       CLEAR     25  15  66 SW6       30.31F WCI  18
FINDLAY        CLEAR     22  15  75 SW7       30.30F WCI  13
TOLEDO EXPRESS CLEAR     25  13  60 SW7       30.29F WCI  17
TOLEDO METCALF CLEAR     22  14  71 SW7       30.31F WCI  13
LIMA           CLEAR     24  15  68 S7        30.30F WCI  16

$$
AND FOR LAKE MICHIGAN COASTAL AND OPEN LAKE BUOY OBSERVATIONS

STATION/POSITION TEMP    WIND        PRES    VSBY  WAVE
                 AIR SEA DIR/SP/G                  HT/PER
                 (F)     (DEG/KT/KT) (MB)    (MI)  (FT/S)
MICHIGAN CITY     26     140/ 11/ 14   N/A
BURNS HARBOR      27     180/ 10/ 15 1024.7F
SAINT JOSEPH      23     120/  5/  9 1024.7F

$$
&&



USA.gov is the U.S. government's official web portal to all federal, state and local government web resources and services.